EW1296 Weather Reports


time (UTC)temp
F
wind
direction
speed
knots
gust
knots
rain 1hr
in
rain 24hr
in
rain mn
in
humidity
%
barometer
mb
20260902144018 70 135 1.7 4.3 0.00 0.36 0.00 79 1020.9
20260902143517 70 113 2.6 6.1 0.00 0.36 0.00 79 1021.0
20260902143017 70 113 2.6 5.2 0.00 0.36 0.00 79 1021.0
20260902142517 70 113 0.9 5.2 0.00 0.36 0.00 80 1021.0
20260902142018 70 113 0.9 6.1 0.00 0.36 0.00 80 1021.0
20260902141517 70 113 1.7 3.5 0.00 0.36 0.00 80 1020.9
20260902141017 70 158 1.7 5.2 0.00 0.36 0.00 81 1020.8
20260902140517 70 135 1.7 6.1 0.00 0.36 0.00 81 1020.7
20260902140038 70 135 1.7 4.3 0.00 0.36 0.00 82 1020.7
20260902135537 70 135 0.9 4.3 0.00 0.36 0.00 83 1020.8
20260902135018 70 90 0.9 2.6 0.00 0.36 0.00 83 1020.8
20260902134518 69 90 0.9 3.5 0.00 0.36 0.00 83 1020.6
20260902134017 69 68 1.7 5.2 0.00 0.36 0.00 84 1020.6
20260902133517 69 90 1.7 7.0 0.00 0.36 0.00 85 1020.4
20260902133057 69 135 1.7 3.5 0.00 0.36 0.00 85 1020.2
20260902132538 69 90 1.7 5.2 0.00 0.36 0.00 86 1020.3
20260902132017 69 68 1.7 7.0 0.00 0.36 0.00 87 1020.4
20260902131517 69 68 1.7 6.1 0.00 0.36 0.00 87 1020.4
20260902131017 68 90 1.7 5.2 0.00 0.36 0.00 88 1020.3
20260902130537 68 90 2.6 7.0 0.00 0.36 0.00 88 1020.3
20260902130017 68 68 1.7 6.1 0.00 0.36 0.00 89 1020.2
20260902125517 68 113 3.5 7.0 0.00 0.37 0.00 90 1020.1
20260902125038 68 68 2.6 8.7 0.00 0.37 0.00 90 1020.2
20260902124517 67 90 2.6 7.0 0.00 0.37 0.00 91 1020.1
20260902124017 67 113 1.7 6.1 0.00 0.37 0.00 92 1020.0
20260902123518 67 68 2.6 7.0 0.00 0.37 0.00 92 1019.9
20260902123018 67 90 2.6 7.0 0.00 0.37 0.00 92 1019.9
20260902122517 67 68 3.5 7.8 0.00 0.37 0.00 92 1019.8
20260902122017 67 68 2.6 7.0 0.00 0.37 0.00 93 1019.9
20260902121518 67 113 2.6 7.8 0.00 0.37 0.00 93 1020.1
20260902121017 67 113 1.7 6.1 0.00 0.37 0.00 93 1020.0
20260902120517 67 68 2.6 7.0 0.00 0.37 0.00 93 1019.9
20260902120017 67 68 2.6 7.8 0.00 0.37 0.00 93 1020.0
20260902115517 67 68 2.6 8.7 0.00 0.37 0.00 93 1019.9
20260902115017 68 135 0.9 4.3 0.00 0.37 0.00 93 1019.8
20260902114517 68 68 2.6 7.0 0.00 0.37 0.00 93 1019.9
20260902114017 68 90 2.6 7.0 0.00 0.37 0.00 93 1019.8
20260902113517 68 90 2.6 6.1 0.00 0.37 0.00 93 1019.9
20260902113018 68 68 2.6 7.8 0.00 0.37 0.00 93 1019.9
20260902112518 68 68 1.7 5.2 0.00 0.37 0.00 93 1019.8
20260902112017 68 90 1.7 3.5 0.00 0.37 0.00 93 1019.7
20260902111537 68 90 1.7 4.3 0.00 0.37 0.00 93 1019.8
20260902111017 68 68 1.7 5.2 0.00 0.37 0.00 93 1019.8
20260902110516 68 45 1.7 7.8 0.00 0.37 0.00 93 1019.8
20260902110038 68 68 2.6 8.7 0.00 0.37 0.00 93 1019.8
20260902105516 68 68 2.6 8.7 0.00 0.37 0.00 93 1019.8
20260902105018 68 23 1.7 4.3 0.00 0.37 0.00 93 1019.8
20260902104637 68 45 0.9 6.1 0.00 0.37 0.00 93 1019.8
20260902104118 68 23 1.7 7.0 0.00 0.37 0.00 93 1019.7
20260902103517 68 68 1.7 4.3 0.00 0.37 0.00 93 1019.6
20260902103037 68 68 1.7 4.3 0.00 0.37 0.00 93 1019.5
20260902102517 68 23 1.7 3.5 0.00 0.37 0.00 93 1019.5
20260902102017 68 23 1.7 4.3 0.00 0.37 0.00 93 1019.5
20260902101517 68 68 1.7 5.2 0.00 0.37 0.00 93 1019.4
20260902101018 68 68 1.7 5.2 0.00 0.37 0.00 93 1019.4
20260902100518 68 23 1.7 6.1 0.00 0.37 0.00 93 1019.3
20260902100017 68 45 2.6 5.2 0.00 0.37 0.00 93 1019.3
20260902095517 68 23 2.6 6.1 0.00 0.37 0.00 92 1019.1
20260902095017 68 45 1.7 6.1 0.00 0.37 0.00 92 1019.1
20260902094517 68 68 1.7 4.3 0.00 0.37 0.00 92 1019.0
20260902094016 68 68 1.7 6.1 0.00 0.37 0.00 92 1019.0
20260902093537 69 68 2.6 7.8 0.00 0.37 0.00 92 1019.0
20260902093017 69 23 1.7 6.1 0.00 0.37 0.00 92 1019.1
20260902092518 69 68 1.7 4.3 0.00 0.37 0.00 92 1019.1
20260902092017 69 23 1.7 4.3 0.00 0.37 0.00 92 1019.1
20260902091517 69 45 1.7 4.3 0.00 0.37 0.00 92 1019.1
20260902091016 69 45 1.7 5.2 0.00 0.37 0.00 92 1019.1
20260902090518 69 45 1.7 5.2 0.00 0.37 0.00 92 1019.0
20260902090018 69 90 2.6 6.1 0.00 0.37 0.00 92 1018.8
20260902085516 68 68 2.6 7.8 0.00 0.37 0.00 92 1018.9
20260902085037 68 45 2.6 8.7 0.00 0.37 0.00 91 1018.9
20260902084517 68 90 1.7 7.0 0.00 0.37 0.00 91 1018.9
20260902084018 68 68 1.7 4.3 0.00 0.37 0.00 91 1018.9
20260902083517 68 68 2.6 8.7 0.00 0.37 0.00 92 1018.9
20260902083016 68 68 2.6 8.7 0.00 0.37 0.00 92 1018.9
20260902082518 68 68 1.7 6.1 0.00 0.37 0.00 92 1018.9
20260902082018 68 68 1.7 5.2 0.00 0.37 0.00 92 1018.9
20260902081516 68 68 1.7 6.1 0.00 0.37 0.00 92 1018.7
20260902081017 68 68 1.7 4.3 0.00 0.37 0.00 92 1018.7
20260902080516 68 0.0 2.6 0.00 0.37 0.00 92 1018.8
20260902080016 68 68 0.9 2.6 0.00 0.37 0.00 92 1018.6
20260902075516 68 68 1.7 5.2 0.00 0.37 0.00 92 1018.6
20260902075016 68 90 0.9 3.5 0.00 0.37 0.00 92 1018.6
20260902074516 68 23 0.9 3.5 0.00 0.37 0.00 92 1018.6
20260902074017 68 68 1.7 6.1 0.00 0.37 0.00 92 1018.6
20260902073516 68 23 1.7 3.5 0.00 0.37 0.00 92 1018.5
20260902073017 68 90 1.7 6.1 0.00 0.37 0.00 92 1018.4
20260902072517 68 68 1.7 6.1 0.00 0.37 0.00 92 1018.3
20260902072017 68 23 2.6 6.1 0.00 0.37 0.00 92 1018.4
20260902071517 68 113 0.9 4.3 0.00 0.37 0.00 92 1018.2
20260902071016 68 45 0.9 4.3 0.00 0.37 0.00 92 1018.2
20260902070539 68 113 0.9 5.2 0.00 0.37 0.00 92 1018.3
20260902070017 68 68 2.6 6.1 0.00 0.37 0.00 92 1018.1
20260902065517 68 68 1.7 7.0 0.00 0.37 0.00 92 1018.1
20260902065058 68 68 2.6 7.0 0.00 0.37 0.00 92 1018.1
20260902064517 68 68 0.9 3.5 0.00 0.37 0.00 92 1018.2
20260902064016 68 68 1.7 7.8 0.00 0.37 0.00 92 1018.2
20260902063518 68 68 1.7 7.0 0.00 0.37 0.00 92 1018.2
20260902063016 68 68 0.9 3.5 0.00 0.37 0.00 93 1018.3
20260902062516 68 68 0.9 6.1 0.00 0.37 0.00 93 1018.3
20260902062018 68 0.0 2.6 0.00 0.37 0.00 93 1018.3
20260902061516 68 23 0.9 4.3 0.00 0.37 0.00 93 1018.4
20260902061036 68 23 0.9 4.3 0.00 0.37 0.00 93 1018.5
20260902060516 68 45 1.7 5.2 0.00 0.37 0.00 93 1018.5
20260902060036 69 0.0 1.7 0.00 0.37 0.00 93 1018.4
20260902055517 69 68 2.6 7.0 0.00 0.37 0.00 93 1018.4
20260902055016 69 45 0.9 5.2 0.00 0.37 0.00 93 1018.6
20260902054536 69 113 1.7 6.1 0.00 0.37 0.00 93 1018.6
20260902054016 69 68 1.7 5.2 0.00 0.37 0.00 93 1018.7
20260902053518 69 23 2.6 6.1 0.00 0.37 0.00 93 1018.6
20260902053016 69 68 0.9 5.2 0.00 0.37 0.00 93 1018.6
20260902052517 69 135 0.9 3.5 0.00 0.37 0.00 93 1018.7
20260902052038 69 68 1.7 5.2 0.00 0.37 0.00 93 1018.6
20260902051516 69 68 1.7 5.2 0.00 0.37 0.00 94 1018.6
20260902051016 69 23 0.9 3.5 0.00 0.37 0.00 94 1018.6
20260902050536 69 68 0.9 3.5 0.00 0.37 0.00 94 1018.6
20260902050016 69 68 1.7 4.3 0.00 0.38 0.00 94 1018.6
20260902045516 69 135 0.9 3.5 0.00 0.38 0.00 94 1018.4
20260902045016 69 113 1.7 5.2 0.00 0.38 0.00 94 1018.4
20260902044516 69 113 1.7 5.2 0.00 0.38 0.00 94 1018.4
20260902044018 69 68 2.6 7.8 0.00 0.38 0.00 94 1018.3
20260902043538 69 68 2.6 7.0 0.00 0.38 0.00 94 1018.2
20260902043017 69 68 0.9 5.2 0.00 0.38 0.00 94 1018.1
20260902042516 69 68 0.9 3.5 0.00 0.38 0.00 94 1018.2
20260902042016 69 90 0.9 3.5 0.00 0.38 0.00 94 1018.1
20260902041516 69 23 1.7 4.3 0.00 0.38 0.00 94 1018.1
20260902041016 69 45 0.9 3.5 0.00 0.38 0.00 94 1018.2
20260902040516 69 45 0.9 2.6 0.00 0.38 0.00 94 1018.1
20260902040016 69 68 1.7 6.1 0.00 0.38 0.00 94 1018.2
20260902035516 70 113 1.7 7.0 0.00 0.38 0.38 94 1018.0
20260902035018 70 23 0.9 2.6 0.00 0.38 0.38 94 1017.8
20260902034517 70 68 0.9 2.6 0.00 0.38 0.38 94 1017.5
20260902034017 70 68 2.6 7.0 0.00 0.38 0.38 94 1017.4
20260902033517 70 68 3.5 7.8 0.00 0.38 0.38 94 1017.1
20260902033056 70 113 2.6 7.0 0.00 0.38 0.38 94 1017.1
20260902032516 70 90 2.6 7.8 0.00 0.38 0.38 94 1017.1
20260902032016 70 90 2.6 7.8 0.00 0.38 0.38 94 1017.1
20260902031516 70 68 2.6 7.0 0.00 0.38 0.38 94 1017.1
20260902031017 70 113 1.7 6.1 0.00 0.38 0.38 94 1017.2
20260902030536 70 90 1.7 7.0 0.00 0.38 0.38 94 1017.2
20260902030017 70 68 2.6 7.8 0.00 0.38 0.38 94 1017.2
20260902025516 70 68 2.6 8.7 0.00 0.38 0.38 94 1017.2
20260902025016 70 68 2.6 8.7 0.00 0.38 0.38 94 1017.2
20260902024518 70 68 3.5 11.3 0.00 0.38 0.38 94 1017.2
20260902024018 70 68 3.5 9.6 0.00 0.38 0.38 93 1017.2
20260902023518 70 68 2.6 8.7 0.00 0.38 0.38 93 1017.0
20260902023016 70 68 3.5 8.7 0.00 0.38 0.38 93 1017.0
20260902022518 70 68 2.6 7.8 0.00 0.38 0.38 94 1016.8
20260902022018 70 90 2.6 11.3 0.00 0.38 0.38 94 1016.8
20260902021538 70 68 4.3 11.3 0.00 0.38 0.38 93 1016.5
20260902021016 70 23 2.6 8.7 0.00 0.38 0.38 93 1016.4
20260902020516 70 68 4.3 11.3 0.00 0.38 0.38 93 1016.3
20260902020036 71 68 3.5 8.7 0.00 0.38 0.38 93 1016.4
20260902015536 71 68 4.3 9.6 0.00 0.38 0.38 93 1016.3
20260902015016 71 45 2.6 9.6 0.00 0.38 0.38 93 1016.0
20260902014518 71 68 2.6 7.8 0.00 0.38 0.38 93 1015.9
20260902014017 72 68 3.5 7.0 0.00 0.38 0.38 93 1015.6
20260902013516 72 45 1.7 7.8 0.00 0.38 0.38 93 1015.9
20260902013016 72 68 2.6 11.3 0.00 0.38 0.38 93 1015.7
20260902012517 73 45 3.5 11.3 0.00 0.38 0.38 93 1015.8
20260902012016 73 45 1.7 5.2 0.00 0.38 0.38 93 1015.5
20260902011516 73 23 3.5 10.4 0.00 0.38 0.38 93 1015.4
20260902011016 73 23 1.7 6.1 0.00 0.38 0.38 93 1015.1
20260902010516 73 68 2.6 7.8 0.00 0.38 0.38 93 1015.2
20260902010017 74 45 3.5 8.7 0.00 0.38 0.38 93 1015.2
20260902005516 74 68 1.7 7.0 0.00 0.38 0.38 93 1015.3
20260902005016 74 45 1.7 7.8 0.01 0.38 0.38 93 1015.1
20260902004516 75 68 3.5 9.6 0.01 0.38 0.38 93 1015.0
20260902004036 75 68 2.6 8.7 0.02 0.38 0.38 93 1014.9
20260902003517 75 68 1.7 7.8 0.02 0.38 0.38 93 1015.0
20260902003036 76 68 1.7 5.2 0.02 0.38 0.38 93 1014.9
20260902002556 76 90 1.7 7.0 0.03 0.38 0.38 93 1014.7
20260902002018 76 68 1.7 5.2 0.03 0.38 0.38 93 1014.8
20260902001516 76 135 1.7 3.5 0.03 0.38 0.38 93 1014.9
20260902001016 76 135 0.9 3.5 0.03 0.38 0.38 92 1014.9
20260902000516 76 0.0 2.6 0.03 0.38 0.38 92 1015.0
20260902000036 76 135 0.9 2.6 0.04 0.38 0.38 92 1014.9
20260901235536 76 113 0.9 3.5 0.04 0.38 0.38 92 1014.7
20260901235016 76 113 1.7 3.5 0.03 0.37 0.37 92 1014.8
20260901234516 76 158 0.9 2.6 0.03 0.37 0.37 92 1015.1
20260901234016 76 113 0.9 3.5 0.02 0.36 0.36 92 1014.9
20260901233516 76 135 0.9 5.2 0.02 0.36 0.36 92 1015.1
20260901233016 76 113 1.7 7.0 0.05 0.36 0.36 92 1014.6
20260901232536 76 113 3.5 7.0 0.12 0.35 0.35 91 1014.2
20260901232016 76 113 2.6 6.1 0.26 0.35 0.35 91 1014.7
20260901231516 76 135 2.6 6.1 0.29 0.35 0.35 91 1014.6
20260901231016 76 113 2.6 7.8 0.30 0.35 0.35 91 1014.5
20260901230517 76 113 3.5 7.0 0.30 0.35 0.35 91 1014.4
20260901230016 77 113 3.5 7.0 0.29 0.34 0.34 90 1014.3
20260901225516 77 113 2.6 7.0 0.29 0.34 0.34 90 1014.3
20260901225016 77 113 1.7 3.5 0.29 0.34 0.34 90 1014.3
20260901224516 77 135 0.9 4.3 0.29 0.34 0.34 89 1014.5
20260901224016 77 270 1.7 3.5 0.29 0.34 0.34 88 1014.5
20260901223517 78 225 1.7 4.3 0.29 0.34 0.34 88 1014.2
20260901223037 78 45 0.9 3.5 0.26 0.31 0.31 87 1014.2
20260901222538 79 90 0.9 3.5 0.18 0.23 0.23 86 1014.2
20260901222016 79 135 1.7 5.2 0.04 0.09 0.09 86 1014.4
20260901221516 79 113 3.5 9.6 0.01 0.06 0.06 85 1014.0
20260901221016 79 113 5.2 9.6 0.00 0.05 0.05 84 1013.7
20260901220516 80 113 5.2 8.7 0.00 0.05 0.05 83 1013.7
20260901220016 80 135 3.5 7.8 0.00 0.05 0.05 83 1013.7
20260901215516 80 135 4.3 8.7 0.00 0.05 0.05 82 1013.9
20260901215016 80 113 3.5 7.8 0.00 0.05 0.05 82 1013.9
20260901214516 81 113 4.3 8.7 0.00 0.05 0.05 81 1013.9
20260901214036 81 135 4.3 8.7 0.00 0.05 0.05 80 1013.9
20260901213517 82 135 3.5 7.8 0.00 0.05 0.05 79 1013.9
20260901213016 82 135 3.5 7.8 0.00 0.05 0.05 78 1013.8
20260901212516 83 113 3.5 7.8 0.00 0.05 0.05 78 1013.8
20260901212037 83 113 3.5 7.0 0.00 0.05 0.05 78 1013.9
20260901211516 83 113 3.5 7.0 0.00 0.05 0.05 78 1014.0
20260901211016 83 113 2.6 6.1 0.00 0.05 0.05 78 1013.9
20260901210517 83 135 3.5 7.0 0.00 0.05 0.05 77 1013.8
20260901210016 84 158 1.7 4.3 0.00 0.05 0.05 78 1013.8
20260901205516 84 135 1.7 5.2 0.00 0.05 0.05 78 1013.8
20260901205016 84 135 3.5 6.1 0.00 0.05 0.05 77 1013.8
20260901204516 84 135 2.6 6.1 0.00 0.05 0.05 77 1013.8
20260901204036 84 135 2.6 5.2 0.00 0.05 0.05 76 1013.8
20260901203537 85 135 1.7 6.1 0.00 0.05 0.05 76 1013.9
20260901203017 85 113 1.7 7.0 0.00 0.05 0.05 75 1014.0
20260901202516 85 135 1.7 5.2 0.00 0.05 0.05 75 1013.9
20260901202017 86 135 0.9 5.2 0.00 0.05 0.05 75 1013.9
20260901201516 86 0.0 2.6 0.00 0.05 0.05 75 1013.8
20260901201016 85 0.0 1.7 0.00 0.05 0.05 75 1013.9
20260901200536 85 0.0 1.7 0.00 0.05 0.05 75 1013.9
20260901200016 86 158 0.9 4.3 0.00 0.05 0.05 75 1013.8
20260901195516 86 158 0.9 3.5 0.00 0.05 0.05 75 1013.8
20260901195016 86 158 0.9 4.3 0.00 0.05 0.05 75 1013.7
20260901194516 86 135 0.9 2.6 0.00 0.05 0.05 75 1013.8
20260901194016 86 0.0 2.6 0.00 0.05 0.05 76 1013.9
20260901193516 85 135 0.9 3.5 0.00 0.05 0.05 76 1014.0
20260901193016 85 113 0.9 3.5 0.00 0.05 0.05 77 1014.0
20260901192516 85 135 1.7 4.3 0.00 0.05 0.05 78 1014.0
20260901192016 85 135 1.7 5.2 0.00 0.05 0.05 79 1014.0
20260901191516 84 293 0.9 5.2 0.00 0.05 0.05 80 1014.0
20260901191036 84 0.0 1.7 0.00 0.05 0.05 81 1014.1
20260901190516 83 225 0.9 2.6 0.00 0.05 0.05 81 1014.1
20260901190016 83 0.0 0.9 0.00 0.05 0.05 82 1014.1
20260901185516 82 248 1.7 4.3 0.00 0.05 0.05 81 1014.2
20260901185017 82 225 0.9 3.5 0.00 0.05 0.05 82 1014.2
20260901184516 82 225 0.9 3.5 0.00 0.05 0.05 82 1014.2
20260901184036 82 0.0 1.7 0.00 0.05 0.05 82 1014.3
20260901183517 82 0.0 1.7 0.00 0.05 0.05 82 1014.3
20260901183016 82 248 0.9 3.5 0.00 0.05 0.05 82 1014.3
20260901182516 82 135 0.9 4.3 0.00 0.05 0.05 83 1014.2
20260901182017 82 225 0.9 6.1 0.00 0.05 0.05 84 1014.2
20260901181536 81 248 1.7 6.1 0.00 0.05 0.05 85 1014.2
20260901181016 81 225 3.5 8.7 0.00 0.05 0.05 86 1014.1
20260901180516 81 225 4.3 9.6 0.00 0.05 0.05 86 1014.1
20260901180016 81 203 1.7 6.1 0.00 0.05 0.05 87 1014.1
20260901175537 80 225 0.9 4.3 0.00 0.05 0.05 88 1014.1
20260901175017 80 248 1.7 7.8 0.00 0.05 0.05 90 1014.1
20260901174557 80 248 1.7 6.1 0.00 0.05 0.05 90 1013.9
20260901174017 79 225 2.6 7.8 0.00 0.05 0.05 91 1014.1
20260901173536 78 0.0 1.7 0.00 0.05 0.05 92 1014.5
20260901173016 78 0.0 2.6 0.00 0.05 0.05 91 1014.7
20260901172516 78 0.0 1.7 0.00 0.05 0.05 92 1014.9
20260901172017 77 0.0 1.7 0.00 0.05 0.05 91 1015.0
20260901171517 77 0.0 1.7 0.00 0.05 0.05 91 1014.9
20260901171016 77 225 0.9 5.2 0.00 0.05 0.05 91 1015.0
20260901170537 77 0.0 2.6 0.01 0.05 0.05 91 1015.0
20260901170036 77 0.0 4.3 0.01 0.05 0.05 91 1014.7
20260901165536 77 0.0 0.0 0.02 0.05 0.05 91 1014.9
20260901165016 77 0.0 1.7 0.02 0.05 0.05 91 1014.9
20260901164516 77 225 0.9 2.6 0.02 0.05 0.05 91 1015.0
20260901164016 77 225 0.9 3.5 0.02 0.05 0.05 90 1015.2
20260901163516 77 225 2.6 4.3 0.02 0.05 0.05 90 1015.2
20260901163016 77 225 1.7 5.2 0.03 0.05 0.05 90 1015.4
20260901162516 78 0.0 1.7 0.03 0.05 0.05 90 1015.5
20260901162016 78 0.0 0.9 0.03 0.05 0.05 90 1015.4
20260901161536 77 0.0 0.9 0.03 0.05 0.05 90 1015.6
20260901161016 78 0.0 0.0 0.03 0.05 0.05 90 1015.8
20260901160535 77 0.0 0.9 0.02 0.04 0.04 90 1015.9
20260901160055 77 0.0 0.9 0.02 0.04 0.04 90 1015.9
20260901155517 77 0.0 0.9 0.01 0.03 0.03 90 1016.1
20260901155016 78 0.0 1.7 0.01 0.03 0.03 90 1016.1
20260901154517 78 0.0 1.7 0.01 0.03 0.03 90 1016.3
20260901154016 78 293 0.9 2.6 0.01 0.03 0.03 90 1016.4
20260901153516 78 293 0.9 1.7 0.01 0.03 0.03 90 1016.3
20260901153016 78 293 0.9 1.7 0.00 0.02 0.02 90 1016.4
20260901152517 77 0.0 1.7 0.00 0.02 0.02 90 1016.1
20260901152016 77 180 0.9 1.7 0.00 0.02 0.02 90 1016.2
20260901151535 77 0.0 1.7 0.00 0.02 0.02 90 1016.1
20260901151159 77 0.0 1.7 0.00 0.02 0.02 90 1016.2
20260901150517 77 0.0 1.7 0.00 0.02 0.02 90 1016.4
20260901150036 77 0.0 0.9 0.00 0.02 0.02 91 1016.3
20260901145517 77 0.0 1.7 0.00 0.02 0.02 91 1016.2
20260901145015 77 180 0.9 2.6 0.00 0.02 0.02 91 1016.1
20260901144515 77 0.0 1.7 0.00 0.02 0.02 91 1016.2